User: anonymous   Login
Location: Luna
(33.8188°N, 108.9564°W)
Time: 09:39:08
(UTC+00:00)
Language:

FENGYUN 1C DEB - Orbit

View from above orbital plane
View from above orbital plane
View from above satellite
View from above satellite

Ground track
Ground track

The orbit data is extracted from the following two-line orbital elements,

1 33711U 99025DGY 23332.09208469  .00001824  00000-0  12502-2 0  9998
2 33711  99.2785   7.5110 0102663 289.6177  97.0774 13.98442662815002
Epoch (UTC): 28 November 2023 02:12:36
Eccentricity: 0.0102663
inclination: 99.2785°
perigee height: 824 km
apogee height: 974 km
right ascension of ascending node: 7.5110°
argument of perigee: 289.6177°
revolutions per day: 13.98442662
mean anomaly at epoch: 97.0774°
orbit number at epoch: 81500

The dashed part of the orbit path shows where the satellite is in the earth's shadow,  

DLR